Flag for Canada Weather past 2 weeks in Laval, Quebec, Canada

Now
64 °F

Passing clouds.


Feels Like: 64 °F
Forecast: 59 / 64 °F
Wind: 3 mph from North

Location: Montreal / Mirabel

Current Time: Jul 28, 2014 at 1:46:02 AM

Latest Report: Jul 28, 2014 at 1:00 AM


Visibility: 25 mi

Pressure: 29.68 "Hg

Humidity: 94%

Dew point: 63 °F

Location of LavalLocation

Historic Weather in Laval — Graph

°F

Laval temperature yesterday

Maximum temperature yesterday: 77 °F (at 4:00 PM)
Minimum temperature yesterday: 63 °F (at 3:00 AM)
Average temperature yesterday: 68 °F

Past Weeks' High & Low Weather Summary

 TemperatureHumidityPressure
High81 °F (Jul 20, 4:00 PM)100% (Jul 13, 6:00 PM)30.29 "Hg (Jul 13, 6:00 PM)
Low50 °F (Jul 24, 6:00 AM)41% (Jul 24, 3:00 PM)29.59 "Hg (Jul 27, 5:00 PM)
Average67 °F78%29.93 "Hg
* Reported Jul 13 1:00 AM — Jul 28 1:00 AM, Laval, Weather by CustomWeather, © 2014

Note: Actual official high and low records may vary slightly from our data, if they occured in-between our weather recording intervals... More about our weather records

Advertising

Laval weather history for previous 24 hours

 ConditionsComfort  
Time TempWeatherWind HumidityBarometerVisibility
1:00 AM
Jul 28
64 °FPassing clouds.3 mph94%29.68 "Hg25 mi
12:00 AM64 °FPartly cloudy.3 mph94%29.66 "Hg25 mi
11:00 PM
Jul 27
64 °FPassing clouds.2 mph94%29.65 "Hg25 mi
10:00 PM64 °FPartly cloudy.3 mph94%29.64 "Hg25 mi
9:00 PM66 °FPartly sunny.5 mph88%29.64 "Hg25 mi
8:00 PM72 °FPartly sunny.3 mph73%29.61 "Hg45 mi
7:00 PM73 °FBroken clouds.3 mph74%29.61 "Hg45 mi
6:00 PM75 °FBroken clouds.6 mph69%29.59 "Hg45 mi
5:00 PM75 °FBroken clouds.6 mph74%29.59 "Hg45 mi
4:00 PM77 °FBroken clouds.6 mph69%29.60 "Hg45 mi
3:00 PM75 °FBroken clouds.8 mph69%29.62 "Hg45 mi
2:00 PM73 °FCloudy.6 mph74%29.62 "Hg45 mi
1:00 PM73 °FBroken clouds.10 mph74%29.63 "Hg40 mi
12:00 PM72 °FPartly sunny.10 mph78%29.64 "Hg25 mi
11:00 AM68 °FPartly sunny.5 mph88%29.65 "Hg25 mi
10:00 AM66 °FCloudy.3 mph94%29.66 "Hg10 mi
9:00 AM64 °FFog.6 mph100%29.66 "Hg6 mi
8:00 AM64 °FSprinkles. Fog.5 mph100%29.64 "Hg3 mi
7:00 AM64 °FSprinkles. Fog.6 mph94%29.67 "Hg3 mi
6:00 AM64 °FSprinkles. Fog.6 mph94%29.67 "Hg6 mi
5:00 AM64 °FSprinkles. Overcast.6 mph100%29.69 "Hg10 mi
4:00 AM64 °FSprinkles. Overcast.3 mph94%29.71 "Hg10 mi
3:00 AM63 °FSprinkles. Overcast.3 mph100%29.72 "Hg15 mi
2:00 AM64 °FSprinkles. Overcast.2 mph94%29.75 "Hg15 mi
1:00 AM68 °FOvercast.5 mph78%29.77 "Hg25 mi
Weather by CustomWeather, © 2014

See weather overviewHow to use our weather pages